Location: Unspecified
(50.7693°N, 0.0000°E)
Time: 17:40:28
(UTC+00:00)

Transit 4A - Pass Details

Date: 27 June 2019
Orbit: 863 x 981 km, 66.8° (Epoch: 22 August)

Event Time Altitude Azimuth Distance (km) Brightness Sun altitude
Rises 16:59:28 0° 316° (NW) 3,687 11.7 27.8°
Reaches altitude 10° 17:02:37 10° 302° (WNW) 2,725 11.5 27.3°
Maximum altitude 17:07:17 22° 254° (WSW) 1,972 11.3 26.5°
Drops below altitude 10° 17:11:52 10° 206° (SSW) 2,665 10.6 25.8°
Sets 17:14:56 0° 192° (SSW) 3,584 11.0 25.3°
